TimeCST,TemperatureF,Dew PointF,Humidity,Sea Level PressureIn,VisibilityMPH,Wind Direction,Wind SpeedMPH,Gust SpeedMPH,PrecipitationIn,Events,Conditions,WindDirDegrees,DateUTC
12:05 AM,68.0,64.4,88,30.07,10.0,SSE,11.5,-,N/A,,Overcast,150,2005-01-05 06:05:00
12:53 AM,66.9,63.0,87,30.06,10.0,SSE,10.4,-,N/A,,Overcast,150,2005-01-05 06:53:00
1:53 AM,66.9,63.0,87,30.04,9.0,SSE,8.1,-,N/A,,Overcast,150,2005-01-05 07:53:00
2:38 AM,66.2,62.6,88,30.02,10.0,SSE,8.1,-,N/A,,Overcast,160,2005-01-05 08:38:00
2:53 AM,66.9,63.0,87,30.02,10.0,SSE,8.1,-,N/A,,Overcast,160,2005-01-05 08:53:00
3:53 AM,68.0,63.0,84,30.01,10.0,South,6.9,-,0.00,,Overcast,170,2005-01-05 09:53:00
4:03 AM,68.0,62.6,83,30.00,10.0,SSE,9.2,-,N/A,,Overcast,160,2005-01-05 10:03:00
4:53 AM,68.0,63.0,84,29.99,10.0,SSE,9.2,-,N/A,,Overcast,160,2005-01-05 10:53:00
5:23 AM,66.2,62.6,88,29.99,10.0,South,5.8,-,N/A,,Overcast,170,2005-01-05 11:23:00
5:53 AM,68.0,62.1,81,30.01,10.0,South,10.4,-,N/A,,Overcast,170,2005-01-05 11:53:00
6:53 AM,68.0,62.1,81,30.02,10.0,South,8.1,-,N/A,,Overcast,170,2005-01-05 12:53:00
7:53 AM,68.0,62.1,81,30.02,10.0,SSE,8.1,-,N/A,,Overcast,160,2005-01-05 13:53:00
8:14 AM,68.0,62.6,83,30.02,10.0,SSE,9.2,-,N/A,,Scattered Clouds,160,2005-01-05 14:14:00
8:42 AM,69.8,62.6,78,30.02,10.0,South,11.5,-,N/A,,Mostly Cloudy,170,2005-01-05 14:42:00
8:53 AM,69.1,63.0,81,30.04,10.0,South,5.8,-,N/A,,Mostly Cloudy,170,2005-01-05 14:53:00
9:53 AM,72.0,63.0,73,30.03,10.0,South,10.4,19.6,N/A,,Mostly Cloudy,170,2005-01-05 15:53:00
10:53 AM,73.9,63.0,68,30.02,10.0,South,15.0,-,N/A,,Mostly Cloudy,190,2005-01-05 16:53:00
11:00 AM,73.4,62.6,69,30.02,10.0,South,13.8,-,N/A,,Mostly Cloudy,170,2005-01-05 17:00:00
11:12 AM,73.4,62.6,69,30.01,10.0,SSW,9.2,-,N/A,,Mostly Cloudy,200,2005-01-05 17:12:00
11:36 AM,75.2,62.6,65,30.00,10.0,SSW,11.5,-,N/A,,Mostly Cloudy,200,2005-01-05 17:36:00
11:53 AM,73.9,61.0,64,30.00,10.0,SSW,13.8,20.7,N/A,,Mostly Cloudy,200,2005-01-05 17:53:00
12:53 PM,77.0,61.0,58,29.96,10.0,South,13.8,-,N/A,,Mostly Cloudy,190,2005-01-05 18:53:00
1:53 PM,77.0,62.1,60,29.93,10.0,SSW,12.7,-,N/A,,Mostly Cloudy,200,2005-01-05 19:53:00
2:53 PM,75.9,63.0,64,29.91,10.0,South,11.5,-,N/A,,Overcast,190,2005-01-05 20:53:00
3:53 PM,73.9,61.0,64,29.91,10.0,SSW,16.1,-,N/A,,Overcast,210,2005-01-05 21:53:00
4:53 PM,73.0,63.0,71,29.90,10.0,South,11.5,-,N/A,,Scattered Clouds,190,2005-01-05 22:53:00
5:53 PM,72.0,63.0,73,29.88,10.0,South,9.2,-,N/A,,Partly Cloudy,170,2005-01-05 23:53:00
6:53 PM,71.1,63.0,75,29.88,10.0,South,6.9,-,N/A,,Clear,190,2005-01-06 00:53:00
7:53 PM,71.1,63.0,75,29.89,10.0,SSW,13.8,-,N/A,,Overcast,200,2005-01-06 01:53:00
8:53 PM,71.1,64.0,78,29.91,10.0,SW,10.4,-,N/A,,Overcast,220,2005-01-06 02:53:00
9:53 PM,70.0,64.0,81,29.92,10.0,SW,8.1,-,N/A,,Overcast,220,2005-01-06 03:53:00
10:18 PM,60.8,55.4,82,29.93,10.0,NW,16.1,25.3,N/A,,Overcast,320,2005-01-06 04:18:00
10:24 PM,59.0,55.4,88,29.94,6.0,NW,17.3,25.3,0.00,Rain,Light Rain,320,2005-01-06 04:24:00
10:32 PM,57.2,53.6,88,29.94,2.5,NW,18.4,28.8,0.02,Rain,Rain,310,2005-01-06 04:32:00
10:35 PM,57.2,53.6,88,29.94,3.0,NW,17.3,28.8,0.02,Rain,Rain,310,2005-01-06 04:35:00
10:53 PM,55.0,52.0,89,29.98,7.0,NW,20.7,26.5,0.04,Rain,Light Rain,310,2005-01-06 04:53:00
11:53 PM,53.1,50.0,89,30.00,6.0,NW,12.7,-,0.01,Rain,Light Rain,320,2005-01-06 05:53:00